This demonstration page uses our WeatherBlox Daily Observations layout. Learn more.

Left ArrowRight Arrow

Hourly Observations for May 14, 2015

Temp ( °F °C ) Dew Point ( °F °C ) Humidity (%) Winds ( mph kmh ) Pressure ( in mb ) Visibility ( mi km ) Precip ( " mm )
12:53 am 00:53 Clear 53 11.7 42 5.6 66 66 ENE 9 15 30.41 1030 10 16 0.00 0.00
1:53 am 01:53 Clear 51 10.6 42 5.6 71 71 E 10 17 30.40 1030 10 16 0.00 0.00
2:53 am 02:53 Clear 49 9.4 41 5 74 74 E 6 9 30.40 1029 10 16 0.00 0.00
3:53 am 03:53 Clear 48 8.9 40 4.4 74 74 E 5 7 30.40 1030 10 16 0.00 0.00
4:53 am 04:53 Clear 48 8.9 40 4.4 74 74 E 8 13 30.38 1029 10 16 0.00 0.00
5:53 am 05:53 Clear 47 8.3 39 3.9 74 74 E 9 15 30.38 1029 10 16 0.00 0.00
6:53 am 06:53 Sunny 47 8.3 39 3.9 74 74 ESE 3 6 30.40 1030 10 16 0.00 0.00
7:53 am 07:53 Sunny 49 9.4 41 5 74 74 E 8 13 30.42 1030 10 16 0.00 0.00
8:53 am 08:53 Sunny 52 11.1 41 5 66 66 E 9 15 30.42 1030 10 16 0.00 0.00
9:53 am 09:53 Sunny 56 13.3 42 5.6 60 60 E 9 15 30.40 1029 10 16 0.00 0.00
10:53 am 10:53 Sunny 59 15 42 5.6 54 54 VRB 7 11 30.40 1029 10 16 0.00 0.00
11:53 am 11:53 Sunny 63 17.2 43 6.1 48 48 SE 8 13 30.38 1029 10 16 0.00 0.00
12:53 pm 12:53 Sunny 66 18.9 43 6.1 43 43 E 10 17 30.35 1028 10 16 0.00 0.00
1:53 pm 13:53 Sunny 68 20 43 6.1 40 40 E 5 7 30.32 1027 10 16 0.00 0.00
2:53 pm 14:53 Sunny 69 20.6 44 6.7 41 41 ESE 8 13 30.29 1026 10 16 0.00 0.00
3:53 pm 15:53 Sunny 70 21.1 43 6.1 38 38 VRB 7 11 30.26 1025 10 16 0.00 0.00
4:53 pm 16:53 Sunny 71 21.7 44 6.7 38 38 VRB 7 11 30.23 1024 10 16 0.00 0.00
5:53 pm 17:53 Sunny 71 21.7 45 7.2 39 39 VRB 5 7 30.23 1024 10 16 0.00 0.00
6:53 pm 18:53 Sunny 70 21.1 46 7.8 42 42 SSE 6 9 30.22 1023 10 16 0.00 0.00
7:53 pm 19:53 Sunny 69 20.6 46 7.8 44 44 SE 3 6 30.20 1023 10 16 0.00 0.00
8:53 pm 20:53 Clear 66 18.9 48 8.9 52 52 Calm 30.18 1022 10 16 0.00 0.00
9:53 pm 21:53 Clear 63 17.2 50 10 63 63 Calm 30.18 1022 10 16 0.00 0.00
10:53 pm 22:53 Cloudy 63 17.2 50 10 63 63 E 3 6 30.19 1022 10 16 0.00 0.00
11:53 pm 23:53 Cloudy 63 17.2 51 10.6 65 65 ESE 3 6 30.18 1022 10 16 0.00 0.00

Powered by AerisWeather